This is the latest recevied weather packets stored in our database for station/object W7TRD. If no packets are shown the sender has not sent any weather packets the latest 10 day(s).
| Time | Temp. | Humidity | Pressure | Rain* | Wind** | Luminosity | Snow |
|---|---|---|---|---|---|---|---|
| 1777902192 | 13.33° C | 84% | 1012.9 hPa | 0 mm | - | 38 W/m² | - |
| 1777901891 | 12.78° C | 85% | 1012.7 hPa | 0 mm | - | 30 W/m² | - |
| 1777901588 | 12.78° C | 85% | 1012.4 hPa | 0 mm | - | 25 W/m² | - |
| 1777901285 | 12.78° C | 85% | 1012.4 hPa | 0 mm | - | 20 W/m² | - |
| 1777900983 | 12.78° C | 84% | 1012.4 hPa | 0 mm | - | 17 W/m² | - |
| 1777900680 | 13.33° C | 84% | 1012.4 hPa | 0 mm | - | 13 W/m² | - |
| 1777900377 | 13.33° C | 83% | 1012.2 hPa | 0 mm | - | 10 W/m² | - |
| 1777900074 | 13.33° C | 83% | 1012.2 hPa | 0 mm | - | 7 W/m² | - |
| 1777899770 | 13.33° C | 82% | 1012 hPa | 0 mm | - | 5 W/m² | - |
| 1777899467 | 13.89° C | 82% | 1012 hPa | 0 mm | - | 3 W/m² | - |
| 1777899165 | 13.89° C | 81% | 1011.8 hPa | 0 mm | - | 2 W/m² | - |
| 1777898862 | 13.89° C | 81% | 1011.8 hPa | 0 mm | - | 1 W/m² | - |
| 1777898559 | 13.89° C | 81% | 1011.7 hPa | 0 mm | - | 1 W/m² | - |
| 1777898257 | 13.89° C | 80% | 1011.4 hPa | 0 mm | - | 0 W/m² | - |
| 1777897954 | 13.89° C | 80% | 1011.5 hPa | 0 mm | - | 0 W/m² | - |
| 1777897650 | 13.89° C | 80% | 1011.5 hPa | 0 mm | - | 0 W/m² | - |
| 1777897346 | 13.89° C | 80% | 1011.3 hPa | 0 mm | - | 0 W/m² | - |
| 1777897042 | 13.89° C | 80% | 1011.4 hPa | 0 mm | - | 0 W/m² | - |
| 1777896739 | 14.44° C | 80% | 1011.4 hPa | 0 mm | - | 0 W/m² | - |
| 1777896436 | 14.44° C | 80% | 1011.2 hPa | 0 mm | - | 0 W/m² | - |
| 1777896134 | 14.44° C | 80% | 1011.3 hPa | 0 mm | - | 0 W/m² | - |
| 1777895832 | 15° C | 80% | 1010.9 hPa | 0 mm | - | 0 W/m² | - |
| 1777895528 | 14.44° C | 80% | 1010.9 hPa | 0 mm | - | 0 W/m² | - |
| 1777895226 | 15° C | 80% | 1010.9 hPa | 0 mm | - | 0 W/m² | - |
| 1777894924 | 15° C | 79% | 1010.8 hPa | 0 mm | - | 0 W/m² | - |
* Rain latest hour (hover to see other rain measurements)
** Current wind speed in m/s (hover to see current wind gust speed)